Location: Fornova de Taro
(44.7000°N, 10.1000°E)
Time: 04:05:43
(UTC+00:00)

Cosmos 292 Rocket - Pass Details

Date: 03 October 2022
Orbit: 673 x 692 km, 74.0° (Epoch: 27 November)

Event Time Altitude Azimuth Distance (km) Brightness Sun altitude
Exits shadow 01:26:02 11° 9° (N) 2,105 6.7 -39.3°
Drops below altitude 10° 01:26:10 10° 9° (N) 2,154 6.8 -39.3°
Sets 01:28:35 0° 16° (NNE) 3,074 7.8 -39.0°
